World > North America > United States > New York

Hourly Northbush, NY Regional Weather

Feedback E-mail the Weather

Quick WX

Northbush, NY Weather Maps

°F °C°F °C
Northbush Weather Map
UTC Time: 7/3/2022, 05:30
Your Time:

Northbush, NY Regional Weather

Expires:202207030600;;590444
ASUS41 KALY 030510
RWRALY

NEW YORK STATE HOURLY WEATHER ROUNDUP
NATIONAL WEATHER SERVICE ALBANY NY
100 AM EDT SUN JUL 03 2022

NOTE: "FAIR" INDICATES FEW OR NO CLOUDS BELOW 12,000 FEET WITH NO
SIGNIFICANT WEATHER AND/OR NO OBSTRUCTIONS TO VISIBILITY.


NYZ032-033-038>043-046>054-057>066-NYZ062>081-082-084-030600-
EAST

  
CITY           SKY/WX    TMP DP  RH WIND       PRES   REMARKS
ALBANY         PTCLDY    64  53  67 CALM      29.95F                  
GLENS FALLS    CLEAR     54  51  90 CALM      29.94S                  
POUGHKEEPSIE   PTCLDY    71  69  93 CALM      29.94F FOG              
NEWBURGH       MOCLDY    72  70  94 CALM      29.96F                  
MONTGOMERY     CLOUDY    70  69  97 CALM      29.96S                  
WHITE PLAINS   PTCLDY    72  68  87 CALM      29.95S                  
ISLIP          PTCLDY    73  71  93 SW5       29.94R                  
NEW YORK CITY  MOCLDY    79  66  64 E5        29.93R                  
CENTRAL PARK   MOCLDY    78  66  66 CALM      29.97R                  
$$


SKY/WX - Weather  TMP - Temperature  DP - Dew Point  RH - Humidity
WIND - Wind Direction/Speed PRES - Barometric Pressure VSB - Visibility
WCI - Wind Chill Index E13G22 Wind - East Wind 13 mph/Gusts of 22 mph

Trending Headlines

Northbush Radar Loop



Northbush Quick Facts


National Two Day Weather Forecast


E-mail the Northbush Weather Forecast

Voice your opinion or tell us about page issues...